Simultaneous Nadir Overpasses (SNOs) Predictions

Prediction of SNOs between GOES-16 and TERRA Satellite Orbit:

Table of predicted SNOs for the next 14.0 days since TLE Epoch: 8/8/2020
Index Date Time (GOES-16) GOES-16 Lat,Lon TERRA Lat,Lon Distance(km) Time Diff (sec)
1 08/08/2020 03:42:03 0.00, -75.21 0.00, -77.58 264.30 80
2 08/10/2020 03:27:04 0.01, -75.22 0.17, -74.53 79.49 80
3 08/12/2020 03:14:52 0.01, -75.24 0.77, -71.56 417.89 80
4 08/12/2020 15:38:48 0.00, -75.27 0.29, -76.73 165.68 80
5 08/14/2020 15:23:56 -0.00, -75.29 -0.31, -73.76 173.07 80
6 08/15/2020 03:47:59 -0.01, -75.28 -0.80, -78.95 418.21 80
7 08/17/2020 03:35:49 -0.01, -75.30 -0.13, -76.00 79.24 80
8 08/19/2020 03:20:57 -0.00, -75.33 0.48, -73.04 260.19 80
9 08/19/2020 15:44:51 0.01, -75.36 0.64, -78.19 323.20 80
10 08/21/2020 15:30:00 0.00, -75.39 -0.03, -75.24 17.04 80
